• In Belarus
  • List of Countries
  • For 7 days
  • Water Temperature
  • Satellite Maps
  • Weather Map
  • Weather Widgets
  • user-avatar
    Login

    Hourly Weather Aveiro

    Today, 19 September, Wednesday

    Time Temperature Precipitation Wind Pressure Humidity
    00:00 +18°C° 0 mm 2 mps 763 mmHg 92%
    01:00 +18°C° 0 mm 2 mps 763 mmHg 92%
    02:00 +18°C° 0 mm 2 mps 763 mmHg 91%
    03:00 +18°C° 0 mm 2 mps 763 mmHg 91%
    04:00 +18°C° 0 mm 2 mps 763 mmHg 90%
    05:00 +17°C° 0 mm 2 mps 763 mmHg 89%
    06:00 +20°C° 0 mm 2 mps 764 mmHg 78%
    07:00 +22°C° 0 mm 3 mps 764 mmHg 67%
    08:00 +26°C° 0 mm 3 mps 764 mmHg 55%
    09:00 +28°C° 0 mm 3 mps 764 mmHg 47%
    10:00 +30°C° 0 mm 3 mps 764 mmHg 39%
    11:00 +33°C° 0 mm 4 mps 764 mmHg 30%
    12:00 +33°C° 0 mm 4 mps 764 mmHg 31%
    13:00 +33°C° 0 mm 5 mps 763 mmHg 32%
    14:00 +33°C° 0 mm 5 mps 763 mmHg 32%
    15:00 +30°C° 0 mm 5 mps 763 mmHg 40%
    16:00 +28°C° 0 mm 5 mps 763 mmHg 48%
    17:00 +26°C° 0 mm 5 mps 763 mmHg 55%
    18:00 +25°C° 0 mm 4 mps 763 mmHg 63%
    19:00 +22°C° 0 mm 4 mps 764 mmHg 72%
    20:00 +20°C° 0 mm 4 mps 764 mmHg 80%
    21:00 +20°C° 0 mm 3 mps 764 mmHg 81%
    22:00 +20°C° 0 mm 3 mps 764 mmHg 82%
    23:00 +19°C° 0 mm 3 mps 764 mmHg 83%

    Tomorrow, 20 September, Thursday

    Time Temperature Precipitation Wind Pressure Humidity
    00:00 +19°C° 0 mm 3 mps 763 mmHg 82%
    01:00 +19°C° 0 mm 3 mps 763 mmHg 80%
    02:00 +19°C° 0 mm 3 mps 763 mmHg 79%
    03:00 +19°C° 0 mm 3 mps 763 mmHg 77%
    04:00 +19°C° 0 mm 3 mps 763 mmHg 75%
    05:00 +19°C° 0 mm 3 mps 763 mmHg 73%
    06:00 +21°C° 0 mm 3 mps 763 mmHg 65%
    07:00 +24°C° 0 mm 3 mps 763 mmHg 56%
    08:00 +27°C° 0 mm 3 mps 763 mmHg 48%
    09:00 +28°C° 0 mm 3 mps 763 mmHg 43%
    10:00 +30°C° 0 mm 3 mps 763 mmHg 38%
    11:00 +33°C° 0 mm 4 mps 763 mmHg 32%
    12:00 +33°C° 0 mm 4 mps 763 mmHg 34%
    13:00 +32°C° 0 mm 4 mps 762 mmHg 36%
    14:00 +32°C° 0 mm 5 mps 762 mmHg 38%
    15:00 +29°C° 0 mm 4 mps 762 mmHg 46%
    16:00 +27°C° 0 mm 4 mps 762 mmHg 54%
    17:00 +26°C° 0 mm 4 mps 762 mmHg 62%
    18:00 +24°C° 0 mm 3 mps 762 mmHg 71%
    19:00 +21°C° 0 mm 3 mps 763 mmHg 80%
    20:00 +19°C° 0 mm 3 mps 763 mmHg 89%
    21:00 +19°C° 0 mm 2 mps 763 mmHg 90%
    22:00 +19°C° 0 mm 2 mps 763 mmHg 91%
    23:00 +18°C° 0 mm 2 mps 763 mmHg 92%

    Day after tomorrow, 21 September, Friday

    Time Temperature Precipitation Wind Pressure Humidity
    00:00 +18°C° 0 mm 2 mps 763 mmHg 92%
    01:00 +18°C° 0 mm 2 mps 763 mmHg 92%
    02:00 +18°C° 0 mm 2 mps 763 mmHg 92%
    03:00 +17°C° 0 mm 2 mps 763 mmHg 92%
    04:00 +17°C° 0 mm 2 mps 763 mmHg 91%
    05:00 +18°C° 0 mm 1 mps 763 mmHg 90%
    06:00 +20°C° 0 mm 1 mps 763 mmHg 79%
    07:00 +23°C° 0 mm 2 mps 764 mmHg 67%
    08:00 +25°C° 0 mm 2 mps 764 mmHg 56%
    09:00 +27°C° 0 mm 2 mps 764 mmHg 50%
    10:00 +28°C° 0 mm 2 mps 764 mmHg 45%
    11:00 +30°C° 0 mm 3 mps 764 mmHg 40%
    12:00 +30°C° 0 mm 3 mps 764 mmHg 42%
    13:00 +30°C° 0 mm 4 mps 763 mmHg 44%
    14:00 +30°C° 0 mm 5 mps 763 mmHg 47%
    15:00 +29°C° 0 mm 4 mps 763 mmHg 54%
    16:00 +27°C° 0 mm 4 mps 763 mmHg 62%
    17:00 +26°C° 0 mm 4 mps 763 mmHg 70%
    18:00 +25°C° 0 mm 4 mps 764 mmHg 77%
    19:00 +22°C° 0 mm 4 mps 764 mmHg 84%
    20:00 +21°C° 0 mm 3 mps 765 mmHg 91%
    21:00 +21°C° 0 mm 3 mps 765 mmHg 91%
    22:00 +21°C° 0 mm 3 mps 765 mmHg 91%
    23:00 +21°C° 0 mm 3 mps 765 mmHg 91%

    22 September, Saturday

    Time Temperature Precipitation Wind Pressure Humidity
    00:00 +21°C° 0 mm 3 mps 765 mmHg 90%
    01:00 +21°C° 0 mm 3 mps 765 mmHg 90%
    02:00 +21°C° 0 mm 3 mps 765 mmHg 89%
    03:00 +20°C° 0 mm 3 mps 765 mmHg 89%
    04:00 +20°C° 0 mm 3 mps 765 mmHg 89%
    05:00 +20°C° 0 mm 3 mps 765 mmHg 89%
    06:00 +22°C° 0 mm 3 mps 765 mmHg 79%
    07:00 +26°C° 0 mm 3 mps 765 mmHg 69%
    08:00 +28°C° 0 mm 3 mps 765 mmHg 59%
    09:00 +30°C° 0 mm 3 mps 765 mmHg 52%
    10:00 +33°C° 0 mm 3 mps 765 mmHg 45%
    11:00 +35°C° 0 mm 4 mps 765 mmHg 38%
    12:00 +35°C° 0 mm 4 mps 765 mmHg 37%
    13:00 +35°C° 0 mm 4 mps 764 mmHg 36%
    14:00 +35°C° 0 mm 5 mps 764 mmHg 34%
    15:00 +33°C° 0 mm 5 mps 764 mmHg 38%
    16:00 +30°C° 0 mm 5 mps 764 mmHg 41%
    17:00 +28°C° 0 mm 4 mps 764 mmHg 45%
    18:00 +27°C° 0 mm 4 mps 764 mmHg 48%
    19:00 +25°C° 0 mm 4 mps 765 mmHg 52%
    20:00 +24°C° 0 mm 3 mps 765 mmHg 56%
    21:00 +22°C° 0 mm 4 mps 765 mmHg 57%
    22:00 +22°C° 0 mm 4 mps 765 mmHg 59%
    23:00 +22°C° 0 mm 4 mps 765 mmHg 60%

    23 September, Sunday

    Time Temperature Precipitation Wind Pressure Humidity
    00:00 +21°C° 0 mm 4 mps 765 mmHg 61%
    01:00 +21°C° 0 mm 4 mps 765 mmHg 63%
    02:00 +21°C° 0 mm 4 mps 765 mmHg 64%
    03:00 +21°C° 0 mm 3 mps 765 mmHg 64%
    04:00 +21°C° 0 mm 3 mps 765 mmHg 65%
    05:00 +21°C° 0 mm 3 mps 765 mmHg 65%
    06:00 +24°C° 0 mm 3 mps 765 mmHg 59%
    07:00 +26°C° 0 mm 4 mps 765 mmHg 52%
    08:00 +28°C° 0 mm 4 mps 765 mmHg 46%
    09:00 +29°C° 0 mm 5 mps 765 mmHg 43%
    10:00 +32°C° 0 mm 5 mps 765 mmHg 41%
    11:00 +33°C° 0 mm 5 mps 766 mmHg 39%
    12:00 +33°C° 0 mm 6 mps 765 mmHg 39%
    13:00 +33°C° 0 mm 7 mps 765 mmHg 39%
    14:00 +33°C° 0 mm 7 mps 764 mmHg 39%
    15:00 +30°C° 0 mm 7 mps 764 mmHg 46%
    16:00 +28°C° 0 mm 6 mps 765 mmHg 53%
    17:00 +27°C° 0 mm 6 mps 765 mmHg 60%
    18:00 +24°C° 0 mm 6 mps 765 mmHg 67%
    19:00 +22°C° 0 mm 5 mps 765 mmHg 74%
    20:00 +21°C° 0 mm 5 mps 766 mmHg 80%
    21:00 +21°C° 0 mm 5 mps 766 mmHg 80%
    22:00 +21°C° 0 mm 5 mps 765 mmHg 80%
    23:00 +21°C° 0 mm 5 mps 765 mmHg 79%

    24 September, Monday

    Time Temperature Precipitation Wind Pressure Humidity
    00:00 +21°C° 0 mm 5 mps 765 mmHg 78%
    01:00 +21°C° 0 mm 5 mps 765 mmHg 77%
    02:00 +21°C° 0 mm 5 mps 765 mmHg 75%
    03:00 +20°C° 0 mm 5 mps 765 mmHg 73%
    04:00 +20°C° 0 mm 5 mps 765 mmHg 70%
    05:00 +20°C° 0 mm 4 mps 765 mmHg 68%
    06:00 +21°C° 0 mm 5 mps 765 mmHg 60%
    07:00 +23°C° 0 mm 5 mps 765 mmHg 52%
    08:00 +25°C° 0 mm 5 mps 765 mmHg 44%
    09:00 +27°C° 0 mm 5 mps 765 mmHg 40%
    10:00 +29°C° 0 mm 5 mps 765 mmHg 35%
    11:00 +30°C° 0 mm 5 mps 765 mmHg 30%
    12:00 +32°C° 0 mm 5 mps 764 mmHg 27%
    13:00 +33°C° 0 mm 6 mps 764 mmHg 25%
    14:00 +33°C° 0 mm 6 mps 763 mmHg 23%
    15:00 +32°C° 0 mm 6 mps 763 mmHg 24%
    16:00 +30°C° 0 mm 6 mps 763 mmHg 26%
    17:00 +28°C° 0 mm 5 mps 763 mmHg 27%
    18:00 +27°C° 0 mm 5 mps 763 mmHg 28%
    19:00 +26°C° 0 mm 5 mps 763 mmHg 29%
    20:00 +23°C° 0 mm 5 mps 764 mmHg 30%
    21:00 +23°C° 0 mm 6 mps 764 mmHg 32%
    22:00 +22°C° 0 mm 6 mps 764 mmHg 34%
    23:00 +21°C° 0 mm 6 mps 764 mmHg 35%
    Show more